GW4258 Weather Reports


time (UTC)temp
F
wind
direction
speed
knots
gust
knots
rain 1hr
in
rain 24hr
in
rain mn
in
humidity
%
barometer
mb
20260510081305 51 162 1.7 2.6 0.00 0.01 0.01 99 1011.5
20260510080801 51 160 0.0 0.9 0.00 0.01 0.01 99 1011.5
20260510080256 51 160 0.0 0.0 0.00 0.01 0.01 99 1011.8
20260510075753 51 160 0.0 0.9 0.00 0.01 0.01 99 1011.8
20260510075251 51 160 0.0 0.9 0.00 0.01 0.01 99 1012.0
20260510074747 51 160 1.7 2.6 0.00 0.01 0.01 99 1011.8
20260510074244 51 203 0.0 0.0 0.00 0.01 0.01 99 1011.9
20260510073740 51 203 0.9 0.9 0.00 0.01 0.01 99 1012.0
20260510073236 51 219 0.0 0.9 0.00 0.01 0.01 99 1012.0
20260510072732 50 220 0.0 0.0 0.00 0.01 0.01 99 1012.0
20260510072229 50 220 0.0 0.0 0.00 0.01 0.01 99 1012.2
20260510071725 50 220 0.0 0.9 0.00 0.01 0.01 99 1012.5
20260510071222 50 220 0.9 0.9 0.00 0.01 0.01 99 1012.2
20260510070720 50 220 0.9 0.9 0.00 0.01 0.01 99 1012.2
20260510070218 50 219 1.7 2.6 0.00 0.01 0.01 99 1012.2
20260510065712 50 305 2.6 3.5 0.00 0.01 0.01 99 1012.5
20260510065209 50 271 1.7 3.5 0.00 0.01 0.01 99 1012.6
20260510064705 50 249 0.0 0.0 0.00 0.01 0.01 99 1012.1
20260510064203 50 328 3.5 3.5 0.00 0.01 0.01 99 1012.5
20260510063700 50 106 0.0 0.0 0.00 0.01 0.01 99 1011.5
20260510063156 50 106 0.0 0.9 0.00 0.01 0.01 99 1011.6
20260510062652 50 106 0.0 0.0 0.00 0.01 0.01 99 1011.7
20260510062148 50 106 0.0 0.0 0.00 0.01 0.01 99 1012.0
20260510061643 50 106 0.0 0.9 0.00 0.01 0.01 99 1011.9
20260510061141 50 106 0.0 0.0 0.00 0.01 0.01 99 1011.8
20260510060637 50 106 0.0 0.0 0.00 0.01 0.01 99 1011.8
20260510060134 50 106 0.0 0.0 0.00 0.01 0.01 99 1012.0
20260510055630 50 106 0.0 0.0 0.00 0.01 0.01 99 1012.0
20260510055129 49 106 0.0 0.0 0.00 0.01 0.01 99 1011.9
20260510054624 49 106 0.0 0.0 0.00 0.01 0.01 99 1012.1
20260510054119 49 106 0.0 0.0 0.00 0.01 0.01 99 1012.2
20260510053619 48 106 0.0 0.0 0.07 0.01 0.01 99 1012.4
20260510053116 48 106 0.0 0.0 0.07 0.01 0.01 99 1012.3
20260510052611 48 106 0.0 0.0 0.00 0.00 0.00 99 1012.2
20260510052108 48 106 0.0 0.0 0.00 0.00 0.00 99 1011.8
20260510051603 48 106 0.0 0.0 0.00 0.00 0.00 99 1011.8
20260510051101 48 106 0.0 0.0 0.00 0.00 0.00 99 1011.6
20260510050558 48 106 0.0 0.0 0.00 0.00 0.00 99 1011.7
20260510050055 49 106 0.0 0.0 0.00 0.00 0.00 99 1011.4
20260510045552 49 106 0.0 0.0 0.00 0.00 0.00 99 1011.7
20260510045048 49 106 0.0 0.0 0.00 0.00 0.00 99 1011.7
20260510044545 49 106 0.0 0.0 0.00 0.00 0.00 99 1011.6
20260510044042 49 106 0.0 0.0 0.00 0.00 0.00 99 1011.7
20260510043538 49 106 0.0 0.0 0.00 0.00 0.00 99 1011.7
20260510043033 49 106 0.0 0.0 0.00 0.00 0.00 99 1011.6
20260510042527 49 106 0.0 0.0 0.00 0.00 0.00 99 1011.9
20260510042022 50 106 0.0 0.0 0.00 0.00 0.00 99 1012.0
20260510041520 50 106 0.0 0.0 0.00 0.00 0.00 99 1011.8
20260510041017 50 106 0.0 0.0 0.00 0.00 0.00 99 1011.7
20260510040514 50 106 0.0 0.0 0.00 0.00 0.00 99 1011.7
20260510040009 50 106 0.0 0.0 0.00 0.16 0.16 99 1011.7
20260510035506 50 106 0.0 0.0 0.00 0.16 0.16 99 1011.8
20260510035005 50 106 0.0 0.0 0.00 0.16 0.16 99 1011.6
20260510034504 50 106 0.0 0.0 0.00 0.16 0.16 99 1011.8
20260510033959 50 106 0.0 0.0 0.00 0.16 0.16 99 1011.6
20260510033455 50 106 0.0 0.0 0.00 0.16 0.16 99 1011.5
20260510032953 50 106 0.0 0.0 0.00 0.16 0.16 99 1011.6
20260510032450 51 106 0.0 0.0 0.00 0.16 0.16 99 1011.7
20260510031945 51 106 0.0 0.0 0.00 0.16 0.16 99 1011.5
20260510031441 52 106 0.0 0.0 0.00 0.16 0.16 99 1011.6
20260510030937 52 107 0.0 0.0 0.00 0.16 0.16 99 1011.6
20260510030432 52 108 0.0 2.6 0.00 0.16 0.16 99 1011.5
20260510025930 52 149 0.0 0.9 0.00 0.16 0.16 99 1011.5
20260510025427 53 142 0.0 0.9 0.00 0.16 0.16 99 1011.6
20260510024925 53 142 1.7 2.6 0.00 0.16 0.16 99 1011.6
20260510024421 53 201 0.9 0.9 0.00 0.16 0.16 99 1011.6
20260510023917 52 243 0.0 0.0 0.00 0.16 0.16 99 1011.6
20260510023413 52 199 0.0 0.9 0.00 0.16 0.16 99 1011.6
20260510022911 51 183 0.0 0.0 0.00 0.16 0.16 99 1011.4
20260510022410 52 183 0.0 0.9 0.00 0.16 0.16 99 1011.6
20260510021909 52 133 0.0 0.9 0.00 0.16 0.16 99 1011.4
20260510021407 53 73 0.0 0.0 0.00 0.16 0.16 99 1011.3
20260510020903 53 184 0.0 0.0 0.00 0.16 0.16 99 1011.6
20260510020358 53 184 0.0 0.0 0.00 0.16 0.16 99 1011.5
20260510015854 53 195 0.0 0.0 0.00 0.16 0.16 99 1011.3
20260510015350 52 187 0.9 0.9 0.00 0.16 0.16 99 1011.3
20260510014845 52 176 0.0 0.0 0.00 0.16 0.16 98 1011.1
20260510014343 52 176 0.0 0.9 0.00 0.16 0.16 97 1011.0
20260510013839 52 183 0.0 0.9 0.00 0.16 0.16 97 1011.2
20260510013335 53 183 0.0 0.9 0.00 0.16 0.16 97 1011.2
20260510012829 53 183 0.0 0.0 0.00 0.16 0.16 96 1011.2
20260510012324 53 183 0.0 0.0 0.00 0.16 0.16 96 1011.2
20260510011819 53 183 0.0 0.9 0.00 0.16 0.16 95 1011.1
20260510011315 53 189 0.0 0.9 0.00 0.16 0.16 95 1011.1
20260510010811 53 189 0.0 0.0 0.00 0.16 0.16 95 1011.0
20260510010309 53 189 0.0 0.0 0.00 0.16 0.16 94 1011.1
20260510005805 54 189 0.0 0.0 0.00 0.16 0.16 93 1011.0
20260510005301 54 188 0.9 0.9 0.00 0.16 0.16 92 1010.9
20260510004759 55 188 0.0 0.9 0.00 0.16 0.16 91 1010.8
20260510004256 55 180 0.0 2.6 0.00 0.16 0.16 90 1010.9
20260510003754 53 197 1.7 2.6 0.00 0.16 0.16 93 1010.8
20260510003251 53 198 0.0 0.9 0.00 0.16 0.16 94 1010.6
20260510002749 53 197 0.0 0.9 0.00 0.16 0.16 93 1010.7
20260510002247 54 197 0.9 0.9 0.00 0.16 0.16 93 1010.5
20260510001743 54 197 0.0 0.9 0.00 0.16 0.16 92 1010.5
20260510001242 54 197 0.0 0.9 0.00 0.16 0.16 92 1010.5
20260510000737 54 202 0.9 0.9 0.00 0.16 0.16 92 1010.4
20260510000235 54 202 0.0 0.9 0.00 0.16 0.16 92 1010.3
20260509235732 55 202 0.0 0.0 0.00 0.16 0.16 91 1010.3
20260509235228 55 202 0.0 0.9 0.00 0.16 0.16 91 1010.2
20260509234724 55 202 0.0 0.0 0.00 0.16 0.16 90 1010.1
20260509234221 56 202 0.0 0.0 0.00 0.16 0.16 89 1010.4
20260509233720 57 202 0.0 0.0 0.00 0.16 0.16 88 1010.3
20260509233217 57 202 0.0 0.0 0.00 0.16 0.16 85 1010.2
20260509232713 57 210 0.9 0.9 0.00 0.16 0.16 86 1010.3
20260509232209 57 210 0.0 0.9 0.00 0.16 0.16 84 1010.3
20260509231700 58 246 0.9 0.9 0.00 0.16 0.16 84 1010.1
20260509231158 58 264 0.9 0.9 0.00 0.16 0.16 82 1010.2
20260509230655 59 263 1.7 2.6 0.00 0.16 0.16 81 1010.3
20260509230152 58 264 0.0 0.0 0.00 0.16 0.16 82 1010.0
20260509225647 59 278 0.9 2.6 0.00 0.16 0.16 82 1010.3
20260509225143 59 281 1.7 2.6 0.00 0.16 0.16 81 1010.1
20260509224639 59 284 1.7 2.6 0.00 0.16 0.16 81 1010.2
20260509224136 58 265 1.7 2.6 0.00 0.16 0.16 83 1010.2
20260509223632 59 272 0.9 0.9 0.00 0.16 0.16 83 1010.1
20260509223124 59 281 2.6 2.6 0.00 0.16 0.16 83 1010.2
20260509222620 59 272 0.9 2.6 0.00 0.16 0.16 82 1009.8
20260509222116 59 289 3.5 3.5 0.00 0.16 0.16 81 1010.2
20260509221611 59 297 3.5 3.5 0.00 0.16 0.16 79 1010.1
20260509221108 60 288 3.5 4.3 0.00 0.16 0.16 78 1010.0
20260509220604 60 290 3.5 3.5 0.00 0.16 0.16 79 1010.2
20260509220100 60 290 2.6 3.5 0.00 0.16 0.16 80 1010.3
20260509215555 60 293 3.5 4.3 0.00 0.16 0.16 80 1010.4
20260509215053 58 297 3.5 3.5 0.00 0.16 0.16 83 1010.5
20260509214550 58 289 3.5 4.3 0.00 0.16 0.16 86 1010.5
20260509214047 58 273 1.7 3.5 0.00 0.16 0.16 83 1010.6
20260509213543 59 277 2.6 4.3 0.00 0.16 0.16 85 1010.6
20260509213040 58 285 1.7 6.1 0.00 0.16 0.16 85 1010.4
20260509212537 58 286 2.6 3.5 0.00 0.16 0.16 86 1010.4
20260509212034 58 274 1.7 3.5 0.00 0.16 0.16 85 1010.6
20260509211529 57 263 0.9 2.6 0.00 0.16 0.16 87 1010.5
20260509211027 57 263 1.7 2.6 0.00 0.16 0.16 89 1010.4
20260509210523 57 232 0.0 2.6 0.00 0.16 0.16 90 1010.6
20260509210020 57 270 0.0 0.0 0.00 0.16 0.16 91 1010.6
20260509205514 56 272 1.7 2.6 0.00 0.16 0.16 91 1010.8
20260509205010 56 252 1.7 2.6 0.00 0.16 0.16 92 1010.7
20260509204506 55 286 1.7 2.6 0.00 0.16 0.16 91 1010.8
20260509204003 55 287 0.9 2.6 0.00 0.16 0.16 91 1010.8
20260509203459 55 283 0.9 2.6 0.00 0.16 0.16 91 1010.7
20260509202956 55 278 1.7 3.5 0.00 0.16 0.16 91 1011.0
20260509202452 55 278 0.9 0.9 0.00 0.16 0.16 92 1010.9
20260509201947 55 279 0.9 0.9 0.00 0.16 0.16 92 1011.0
20260509201443 55 285 2.6 3.5 0.00 0.16 0.16 92 1011.1
20260509200940 55 287 0.9 2.6 0.00 0.16 0.16 92 1011.1
20260509200440 55 285 3.5 3.5 0.00 0.16 0.16 91 1011.1
20260509195937 55 278 1.7 3.5 0.00 0.16 0.16 91 1011.1
20260509195427 55 270 1.7 2.6 0.00 0.16 0.16 92 1011.3
20260509194926 54 268 0.9 2.6 0.00 0.16 0.16 92 1011.2
20260509194422 55 268 0.9 2.6 0.00 0.16 0.16 92 1011.1
20260509193920 54 275 0.9 2.6 0.00 0.16 0.16 92 1011.3
20260509193419 54 270 1.7 2.6 0.00 0.16 0.16 94 1011.1
20260509192915 54 278 0.9 0.9 0.00 0.16 0.16 95 1011.2
20260509192411 54 289 0.9 0.9 0.00 0.16 0.16 96 1011.3
20260509191907 54 292 0.9 0.9 0.00 0.16 0.16 97 1011.5
20260509191402 53 258 0.0 2.6 0.00 0.16 0.16 97 1011.2
20260509190859 53 285 0.0 0.0 0.00 0.16 0.16 98 1011.3
20260509190356 53 277 0.0 2.6 0.00 0.16 0.16 98 1011.4
20260509185853 54 290 0.0 0.9 0.00 0.16 0.16 98 1011.6
20260509185349 53 274 0.0 0.9 0.00 0.16 0.16 98 1011.9
20260509184847 53 272 0.9 0.9 0.00 0.16 0.16 98 1012.1
20260509184344 53 272 0.9 0.9 0.05 0.16 0.16 98 1012.1
20260509183840 53 276 1.7 2.6 0.05 0.16 0.16 98 1012.1
20260509183336 53 213 0.0 2.6 0.00 0.15 0.15 98 1012.0
20260509182832 53 263 0.0 2.6 0.00 0.15 0.15 97 1012.3
20260509182329 53 270 1.7 2.6 0.00 0.15 0.15 98 1012.1
20260509181826 53 273 0.9 2.6 0.07 0.15 0.15 98 1012.3
20260509181324 53 271 0.0 0.9 0.07 0.15 0.15 98 1012.1
20260509180821 53 276 0.0 0.9 0.00 0.14 0.14 98 1012.1
20260509180317 53 268 0.0 0.0 0.00 0.14 0.14 98 1012.2
20260509175813 53 268 0.9 0.9 0.05 0.14 0.14 98 1012.2
20260509175310 53 268 0.0 0.9 0.05 0.14 0.14 98 1012.1
20260509174806 53 294 0.9 0.9 0.00 0.13 0.13 98 1012.1
20260509174302 53 294 0.0 0.9 0.00 0.13 0.13 97 1012.0
20260509173758 53 294 0.9 0.9 0.07 0.13 0.13 97 1012.1
20260509173253 52 294 0.0 0.9 0.07 0.13 0.13 97 1012.1
20260509172749 52 294 0.9 2.6 0.07 0.12 0.12 97 1012.1
20260509172247 52 294 1.7 2.6 0.12 0.12 0.12 96 1012.1
20260509171742 52 292 0.9 2.6 0.05 0.11 0.11 96 1012.1
20260509171238 52 281 1.7 2.6 0.07 0.10 0.10 95 1012.1
20260509170735 52 281 0.9 2.6 0.12 0.10 0.10 95 1012.1
20260509170231 53 286 1.7 2.6 0.17 0.09 0.09 95 1012.1
20260509165729 53 276 0.0 0.9 0.19 0.08 0.08 93 1012.0
20260509165225 53 278 0.9 0.9 0.19 0.06 0.06 92 1012.2
20260509164721 53 283 2.6 3.5 0.12 0.04 0.04 91 1012.3
20260509164217 53 277 2.6 4.3 0.05 0.03 0.03 90 1012.5
20260509163715 54 289 3.5 4.3 0.07 0.02 0.02 90 1012.6
20260509163211 54 273 2.6 3.5 0.07 0.02 0.02 90 1012.4
20260509162709 55 262 2.6 3.5 0.07 0.01 0.01 89 1012.5
20260509162204 55 275 2.6 3.5 0.07 0.01 0.01 86 1012.4
20260509161700 55 290 3.5 3.5 0.00 0.00 0.00 86 1012.6
20260509161155 56 283 3.5 3.5 0.00 0.00 0.00 83 1012.7
20260509160651 57 265 1.7 2.6 0.00 0.00 0.00 83 1012.7
20260509160147 57 269 1.7 3.5 0.00 0.00 0.00 80 1012.5
20260509155643 57 290 3.5 4.3 0.00 0.00 0.00 80 1012.5
20260509155140 57 279 3.5 6.1 0.00 0.00 0.00 78 1012.7
20260509154635 57 277 4.3 6.1 0.00 0.00 0.00 78 1012.7
20260509154133 57 267 2.6 3.5 0.00 0.00 0.00 77 1012.8
20260509153630 58 284 3.5 6.1 0.00 0.00 0.00 75 1012.7
20260509153126 58 264 3.5 4.3 0.00 0.00 0.00 76 1012.8
20260509152622 58 275 2.6 4.3 0.00 0.00 0.00 77 1012.6
20260509152120 58 269 4.3 4.3 0.00 0.00 0.00 78 1012.6
20260509151616 58 282 1.7 3.5 0.00 0.00 0.00 78 1012.4
20260509151114 57 261 2.6 3.5 0.00 0.00 0.00 78 1012.8
20260509150611 57 281 3.5 3.5 0.00 0.00 0.00 78 1012.6
20260509150109 57 281 1.7 3.5 0.00 0.00 0.00 78 1012.6
20260509145605 57 269 0.0 2.6 0.00 0.00 0.00 80 1012.6
20260509145100 56 257 0.0 3.5 0.00 0.00 0.00 80 1012.8
20260509144557 56 289 1.7 3.5 0.00 0.00 0.00 79 1012.6
20260509144054 56 24 0.9 0.9 0.00 0.00 0.00 81 1012.1
20260509143551 56 121 0.9 2.6 0.00 0.00 0.00 81 1012.2
20260509143049 56 184 0.0 0.9 0.00 0.00 0.00 80 1012.3
20260509142544 56 200 0.9 0.9 0.00 0.00 0.00 80 1012.2
20260509142040 56 262 0.0 0.9 0.00 0.00 0.00 80 1012.3
20260509141532 56 330 0.9 0.9 0.00 0.00 0.00 81 1012.2
20260509141029 55 234 0.0 0.9 0.00 0.00 0.00 81 1012.1
20260509140525 55 234 0.9 0.9 0.00 0.00 0.00 83 1012.3
20260509140023 55 226 0.0 0.9 0.00 0.00 0.00 83 1012.3
20260509135520 55 116 0.0 0.0 0.00 0.00 0.00 84 1012.2
20260509135018 55 116 0.0 0.0 0.00 0.00 0.00 84 1012.2
20260509134515 55 64 0.0 0.0 0.00 0.00 0.00 84 1012.5
20260509134012 55 64 0.0 0.9 0.00 0.00 0.00 85 1012.3
20260509133508 54 114 0.9 0.9 0.00 0.00 0.00 85 1012.4
20260509133006 54 334 0.9 2.6 0.00 0.00 0.00 83 1012.3
20260509132504 54 113 0.0 0.0 0.00 0.00 0.00 85 1012.3
20260509132001 54 114 0.0 0.0 0.00 0.00 0.00 86 1012.4
20260509131459 53 113 0.0 2.6 0.00 0.00 0.00 85 1011.9
20260509130955 53 120 0.9 2.6 0.00 0.00 0.00 85 1011.9
20260509130450 53 103 2.6 3.5 0.00 0.00 0.00 85 1012.0
20260509125948 53 164 0.0 0.9 0.00 0.00 0.00 86 1012.0
20260509125444 53 96 1.7 2.6 0.00 0.00 0.00 85 1011.9
20260509124940 53 117 2.6 3.5 0.00 0.00 0.00 85 1012.0
20260509124438 52 118 0.9 2.6 0.00 0.00 0.00 86 1012.0
20260509123935 52 106 2.6 2.6 0.00 0.00 0.00 85 1012.0
20260509123432 52 101 1.7 2.6 0.00 0.00 0.00 85 1012.2
20260509122928 52 103 1.7 2.6 0.00 0.00 0.00 85 1012.2
20260509122425 52 103 0.0 0.9 0.00 0.00 0.00 86 1012.2
20260509121922 52 99 1.7 2.6 0.00 0.00 0.00 85 1012.1
20260509121419 52 106 0.0 0.9 0.00 0.00 0.00 85 1012.5
20260509120917 52 107 0.9 0.9 0.00 0.00 0.00 84 1012.3
20260509120414 52 109 0.0 2.6 0.00 0.00 0.00 84 1012.2
20260509115912 52 102 0.0 0.9 0.00 0.00 0.00 84 1012.3
20260509115409 52 103 0.0 0.0 0.00 0.00 0.00 84 1012.3
20260509114907 52 95 0.9 2.6 0.00 0.00 0.00 83 1012.3
20260509114405 52 94 1.7 3.5 0.00 0.00 0.00 83 1012.2
20260509113904 52 102 1.7 2.6 0.00 0.00 0.00 82 1012.2
20260509113400 51 115 0.9 2.6 0.00 0.00 0.00 83 1012.2
20260509112857 51 102 1.7 2.6 0.00 0.00 0.00 83 1012.2
20260509112354 51 149 0.9 2.6 0.00 0.00 0.00 84 1012.2
20260509111852 50 112 1.7 2.6 0.00 0.00 0.00 85 1011.8
20260509111348 50 128 1.7 2.6 0.00 0.00 0.00 85 1011.8
20260509110846 50 117 2.6 2.6 0.00 0.00 0.00 85 1012.0
20260509110342 50 107 2.6 3.5 0.00 0.00 0.00 85 1012.0
20260509105841 50 149 0.9 2.6 0.00 0.00 0.00 85 1011.8
20260509105338 50 118 0.9 2.6 0.00 0.00 0.00 85 1011.8
20260509104835 51 112 1.7 2.6 0.00 0.00 0.00 84 1012.0
20260509104331 50 109 0.9 2.6 0.00 0.00 0.00 83 1012.1
20260509103829 50 142 0.9 2.6 0.00 0.00 0.00 84 1011.9
20260509103326 50 115 0.9 2.6 0.00 0.00 0.00 83 1012.0
20260509102826 50 134 1.7 2.6 0.00 0.00 0.00 83 1011.8
20260509102322 50 121 0.9 2.6 0.00 0.00 0.00 83 1011.5
20260509101817 50 137 0.0 2.6 0.00 0.00 0.00 83 1011.7
20260509101314 50 117 3.5 4.3 0.00 0.00 0.00 83 1011.8
20260509100812 50 110 0.9 2.6 0.00 0.00 0.00 83 1011.7
20260509100309 50 133 1.7 2.6 0.00 0.00 0.00 84 1011.8
20260509095805 50 125 1.7 3.5 0.00 0.00 0.00 84 1011.6
20260509095305 50 106 0.9 2.6 0.00 0.00 0.00 84 1011.6
20260509094800 51 68 2.6 4.3 0.00 0.00 0.00 84 1011.5
20260509094256 50 96 0.9 3.5 0.00 0.00 0.00 82 1012.0
20260509093754 50 135 1.7 3.5 0.00 0.00 0.00 83 1011.6
20260509093251 51 115 0.0 3.5 0.00 0.00 0.00 82 1011.7
20260509092750 51 110 1.7 3.5 0.00 0.00 0.00 80 1011.9
20260509092247 51 110 0.9 2.6 0.00 0.00 0.00 81 1011.8
20260509091745 51 125 0.0 0.9 0.00 0.00 0.00 81 1012.1
20260509091241 51 125 0.0 0.0 0.00 0.00 0.00 82 1012.0
20260509090739 50 119 0.9 0.9 0.00 0.00 0.00 82 1012.0
20260509090235 50 138 0.0 0.9 0.00 0.00 0.00 82 1011.9
20260509085733 50 115 0.0 0.9 0.00 0.00 0.00 83 1012.0
20260509085231 50 129 1.7 2.6 0.00 0.00 0.00 84 1012.0
20260509084727 50 122 1.7 2.6 0.00 0.00 0.00 82 1012.2
20260509084223 50 99 0.0 0.9 0.00 0.00 0.00 82 1012.1
20260509083722 50 119 0.9 2.6 0.00 0.00 0.00 83 1012.1
20260509083218 50 116 0.0 0.9 0.00 0.00 0.00 83 1012.3
20260509082715 50 115 0.9 0.9 0.00 0.00 0.00 83 1012.3
20260509082212 51 115 0.9 0.9 0.00 0.00 0.00 81 1012.4